This is the latest recevied weather packets stored in our database for station/object N3SBK. If no packets are shown the sender has not sent any weather packets the latest 10 day(s).
| Time | Temp. | Humidity | Pressure | Rain* | Wind** | Luminosity | Snow |
|---|---|---|---|---|---|---|---|
| 1787485907 | 16.67° C | 96% | 1004 hPa | 0 mm | - | 18 W/m² | - |
| 1787485603 | 16.67° C | 97% | 1003.8 hPa | 0 mm | - | 24 W/m² | - |
| 1787485298 | 16.67° C | 97% | 1003.7 hPa | 0 mm | - | 24 W/m² | - |
| 1787484993 | 16.67° C | 97% | 1003.8 hPa | 0 mm | - | 18 W/m² | - |
| 1787484691 | 16.67° C | 97% | 1003.9 hPa | 0 mm | - | 15 W/m² | - |
| 1787484386 | 16.67° C | 97% | 1003.8 hPa | 0 mm | - | 18 W/m² | - |
| 1787484083 | 16.67° C | 97% | 1003.8 hPa | 0 mm | - | 17 W/m² | - |
| 1787483783 | 16.67° C | 97% | 1004 hPa | 0 mm | - | 10 W/m² | - |
| 1787483480 | 16.67° C | 97% | 1003.8 hPa | 0 mm | - | 5 W/m² | - |
| 1787483176 | 16.67° C | 98% | 1003.9 hPa | 0 mm | - | 6 W/m² | - |
| 1787482872 | 16.67° C | 98% | 1003.8 hPa | 0 mm | - | 3 W/m² | - |
| 1787482567 | 16.67° C | 98% | 1003.9 hPa | 0 mm | - | 3 W/m² | - |
| 1787482263 | 16.67° C | 98% | 1003.8 hPa | 0 mm | - | 3 W/m² | - |
| 1787481958 | 16.67° C | 98% | 1003.8 hPa | 0 mm | - | 2 W/m² | - |
| 1787481654 | 16.67° C | 98% | 1003.6 hPa | 0 mm | - | 1 W/m² | - |
| 1787481352 | 16.67° C | 98% | 1003.8 hPa | 0 mm | - | 0 W/m² | - |
| 1787481047 | 16.67° C | 98% | 1003.6 hPa | 0 mm | - | 0 W/m² | - |
| 1787480742 | 16.67° C | 98% | 1003.6 hPa | 0 mm | - | 0 W/m² | - |
| 1787480438 | 16.67° C | 98% | 1003.5 hPa | 0 mm | - | 0 W/m² | - |
| 1787480134 | 16.67° C | 98% | 1003.6 hPa | 0 mm | - | 0 W/m² | - |
| 1787479831 | 16.67° C | 98% | 1003.5 hPa | 0 mm | - | 0 W/m² | - |
| 1787479527 | 16.67° C | 98% | 1003.3 hPa | 0 mm | - | 0 W/m² | - |
| 1787479224 | 16.67° C | 98% | 1003.4 hPa | 0 mm | - | 0 W/m² | - |
| 1787478921 | 16.67° C | 98% | 1003.2 hPa | 0 mm | - | 0 W/m² | - |
| 1787478616 | 16.67° C | 98% | 1003.1 hPa | 0 mm | - | 0 W/m² | - |
* Rain latest hour (hover to see other rain measurements)
** Current wind speed in m/s (hover to see current wind gust speed)